NWS Home NWS Lubbock West Texas Mesonet North Sector Latest Conditions as of 0956 AM, Sat Feb 25, 2017

Latest   N   C   S   Daily Sum   3hrΔ   24hrΔ   Soil Data 
Site Map   24hr Precip   72hr Precip   Google Plot


Station Time of Last Temp Dew Pt. RH Wind Direction Wind Speed Wind Gust Max Wind Max Temp Min Temp Max RH Min RH Altimeter 1HR Rain Today's Rain Solar Rad Wind ChillRed Flag
Aiken 3WSW  09:50 AM 32 18 56% SE89 14 mph 65° @ 1241 AM 32 14 89 53 30.21" 0 0.00 512 25  
Amarillo 15NNW   09:50 AM 30 19 62% SW68 10 mph 228° @ 0949 AM 30 14 87 62 30.18" 0 0.00 469 24  
Amarillo 7SSE  09:50 AM 31 18 57% SW1012 15 mph 222° @ 0949 AM 32 13 89 57 30.18" 0 0.00 495 22  
Amarillo 9NNE  09:50 AM 33 19 56% S1114 14 mph 200° @ 0950 AM 33 11 96 56 30.17" 0 0.00 467 25  
Amherst 1NE  09:50 AM 32 19 57% SE1114 16 mph 145° @ 0940 AM 32 19 82 57 30.18" 0 0.00 490 23  
Bootleg 11WNW  09:50 AM 30 16 57% S1520 22 mph 183° @ 0948 AM 31 12 83 56 30.14" 0 0.00 408 19  
Boys Ranch 1WSW  09:50 AM 28 15 58% W35 12 mph 268° @ 0709 AM 28 15 85 56 30.19" 0 0.00 457    
Canadian 6E  09:50 AM 28 13 54% W34 11 mph 22° @ 0101 AM 28 13 89 54 30.19" 0 0.00 527    
Caprock Canyons State Park  09:50 AM 32 20 61% E45 12 mph 16° @ 1202 AM 33 22 84 57 30.24" 0 0.00 399    
Childress 2NNE  09:50 AM 31 16 53% N57 13 mph 12° @ 0425 AM 33 22 87 53 30.27" 0 0.00 496    
Clarendon 2WSW  09:50 AM 31 16 54% SW47 11 mph 31° @ 0255 AM 31 15 88 54 30.21" 0 0.00 456    
Claude 12SW  09:50 AM 31 19 60% S810 16 mph 53° @ 1208 AM 31 19 81 59 30.18" 0 0.00 527 23  
Dimmitt 2NE  09:50 AM 30 20 66% S1215 17 mph 169° @ 0935 AM 30 17 88 66 30.16" 0 0.00 428 20  
Dozier 3W  05:25 AM 22 16 78% N67 13 mph 10° @ 1225 AM 30 22 78 61 30.19" 0 0.00 0 14  
Floydada 2NNE  09:50 AM 32 18 56% SE58 16 mph 51° @ 1210 AM 32 16 92 56 30.20" 0 0.00 507 27  
Friona 2NE  09:50 AM 30 19 63% S1418 18 mph 179° @ 0945 AM 30 11 89 63 30.16" 0 0.00 457 20  
Goodlett 3W  09:50 AM 32 17 55% SE36 17 mph 20° @ 0520 AM 35 22 87 55 30.29" 0 0.00 480    
Goodnight  09:50 AM 32 18 54% SW1011 11 mph 209° @ 0950 AM 32 16 90 52 30.21" 0 0.00 519 24  
Hart 3N  09:50 AM 31 19 63% S912 14 mph 169° @ 0945 AM 31 14 89 63 30.18" 0 0.00 491 23  
Hereford 2NW  09:50 AM 30 18 61% S914 14 mph 187° @ 0950 AM 30 15 85 61 30.16" 0 0.00 484 22  
McLean 1E  09:50 AM 30 11 46% S13 15 mph 10° @ 0430 AM 30 17 81 46 30.19" 0 0.00 516    
Memphis 1NE  09:50 AM 31 15 53% E25 13 mph 20° @ 0320 AM 33 22 83 52 30.27" 0 0.00 415    
Muleshoe 2SSW  09:50 AM 33 18 55% SE1115 16 mph 167° @ 0935 AM 33 12 92 55 30.17" 0 0.00 482 25  
Northfield 1S  09:50 AM 32 18 56% NE26 13 mph 54° @ 1205 AM 35 24 88 56 30.27" 0 0.00 477    
Odell 4ENE  09:50 AM 33 19 56% N78 16 mph 27° @ 1201 AM 36 24 91 54 30.31" 0 0.00 456 27  
Olton 6S  09:50 AM 32 19 60% SE811 14 mph 160° @ 0925 AM 32 17 89 58 30.18" 0 0.00 472 25  
Palo Duro Canyon SP Floor  09:50 AM 35 19 51% SE46 7 mph 233° @ 0106 AM 35 19 83 50 30.21" 0 0.00 462    
Palo Duro Canyon State Park Rim  09:50 AM 32 18 55% S711 12 mph 180° @ 0948 AM 33 18 81 53 30.19" 0 0.00 508 26  
Pampa 2E  09:50 AM 27 15 61% S79 9 mph 198° @ 0950 AM 27 12 92 60 30.18" 0 0.00 438 19  
Panhandle 1SSW  09:50 AM 31 18 57% SW1315 18 mph 197° @ 0939 AM 31 11 91 55 30.18" 0 0.00 515 21  
Plainview 1S  09:50 AM 31 21 65% S712 14 mph 169° @ 0945 AM 31 19 85 56 30.19" 0 0.00 460 24  
Silverton 7ESE  09:50 AM 32 18 58% SE68 14 mph 58° @ 1225 AM 32 18 82 58 30.21" 0 0.00 455 26  
Tulia 2ENE  09:45 AM 31 21 69% S914 14 mph 170° @ 0945 AM 31 15 93 69 30.19" 0 0.00 431 23  
Turkey 2WSW  09:50 AM 32 21 65% E47 9 mph 46° @ 1205 AM 32 24 85 61 30.24" 0 0.00 456    
Umbarger 3NNE  09:50 AM 30 18 61% SW1314 16 mph 205° @ 0944 AM 30 14 86 61 30.17" 0 0.00 502 20  
Vigo Park  09:50 AM 31 19 60% SE68 13 mph 59° @ 1222 AM 32 14 87 59 30.20" 0 0.00 475 25  

West Texas Mesonet Home   Site Map/Menu  NWS Lubbock Soil Data  Daily Summary Page  24hr Precip  72hr Precip  Google Plot